sat.trackr.live / text

‹ back to catalog

STARLINK-37154

NORAD 68316 · 2026-057Y

PAYLOAD ACTIVE UNKNOWN

§ Identity

Operator
Country
US
Launch date
2026-03-20
Launch site
AFWTR
Launch vehicle
Mass (kg)
RCS (m²)

Purposes: comms

External: N2YO · Heavens-Above · Gunter

§ Orbital elements

Epoch: 2026-05-24T21:50:31.567776Z

Period
91.42 min
Inclination
97.2848°
Eccentricity
0.0001388
Mean motion
15.75220076 rev/d
Perigee alt
343.1 km
Apogee alt
344.9 km
Semi-major
6,722.1 km
B*
6.1011e-4
RAAN
271.1396°
Arg perigee
74.9168°
Mean anomaly
285.2251°
Rev number
1,028

§ Raw data

STARLINK-371541 68316U 26057Y   26144.91008759  .00091978  00000+0  61011-3 0  99952 68316  97.2848 271.1396 0001388  74.9168 285.2251 15.75220076 10289

JSON: /api/v1/satellites/68316 · /tle

For live sub-satellite position, see the globe view (requires WebGL).

§ Visibility from observer

Set your observer location to see the next 7 days of passes ≥ 10°. The values pass through the URL so the page stays shareable.

No JS? Fill the form by hand. The geolocation button needs JavaScript.